Skip Page Navigation
NASA JPL Caltech
NASA Logo - Jet Propulsion Laboratory + View the NASA Portal
+ Center for Near-Earth Object Studies
JPL Home Earth Solar System Stars & Galaxies Technology
JPL Solar System Dynamics
BODIES ORBITS EPHEMERIDES TOOLS PHYSICAL DATA DISCOVERY FAQ SITE MAP
IMPORTANT: The SSD Announcement email list is now available. Major changes are coming in the near future, including possible hostname and/or URL changes. To be notified of such changes, subscribe to this email list.

Please visit this page for more details.


JPL Small-Body Database Browser
Search: [ help ]  
8143 Nezval (1982 VN)
Classification: Main-belt Asteroid          SPK-ID: 2008143
Ephemeris | Orbit Diagram | Orbital Elements | Mission Design | Physical Parameters | Discovery Circumstances | Close-Approach Data ]

[ hide orbit diagram ]

For accurate long-term ephemerides, please instead use our Horizons system.This orbit viewer was implemented using two-body methods, and hence should not be used for determining accurate long-term trajectories (over several years or decades) or planetary encounter circumstances.


[ revert to old Java-based viewer ]

Orbital Elements at Epoch 2459000.5 (2020-May-31.0) TDB
Reference: JPL 26 (heliocentric ecliptic J2000)
 Element Value Uncertainty (1-sigma)   Units 
e .1998433923167907 4.2411e-08  
a 2.431423193107435 9.1575e-09 au
q 1.945519334039122 1.0578e-07 au
i 2.982158879620311 5.1429e-06 deg
node 52.78627040644584 8.6405e-05 deg
peri 22.52880570929485 8.76e-05 deg
M 308.7782465720877 1.5018e-05 deg
tp 2459197.534011722383
(2020-Dec-14.03401172)
5.8339e-05 TDB
period 1384.807029690724
3.79
7.8234e-06
2.142e-08
d
yr
n .2599640182938706 1.4687e-09 deg/d
Q 2.917327052175749 1.0988e-08 au
  Orbit Determination Parameters
   # obs. used (total)      1509  
   data-arc span      13422 days (36.75 yr)  
   first obs. used      1982-10-21  
   last obs. used      2019-07-21  
   planetary ephem.      DE431  
   SB-pert. ephem.      SB431-N16  
   condition code      0  
   norm. resid. RMS      .55301  
   source      ORB  
   producer      Otto Matic  
   solution date      2020-Feb-22 18:47:04  

Additional Information
 Earth MOID = .961005 au 
 Jupiter MOID = 2.35489 au 
 T_jup = 3.478 
[ show covariance matrix ]

Ephemeris | Orbit Diagram | Orbital Elements | Mission Design | Physical Parameters | Discovery Circumstances | Close-Approach Data ]

Physical Parameter Table
Parameter Symbol Value Units Sigma Reference Notes
absolute magnitude H 13.8   n/a MPO299022  
diameter diameter 3.802 km 0.092 urn:nasa:pds:neowise_diameters_albedos::2.0[mainbelt] (http://adsabs.harvard.edu/abs/2011ApJ...741...68M)  
geometric albedo albedo 0.405   0.074 urn:nasa:pds:neowise_diameters_albedos::2.0[mainbelt] (http://adsabs.harvard.edu/abs/2011ApJ...741...68M)  

8143 Nezval           Discovered 1982 Nov. 11 by A. Mrkos at Klet.
Vítězslav Nezval (1900-1958) was one of the most prolific Czech poets. He was the founder of the Poetism movement and later the founder of the surrealist group of Czechoslovakia. His best imaginative works come from the interwar period. The name was suggested by J. Ticha.
NOTE: some special characters may not display properly (any characters within {} are an attempt to place the proper accent above a character)
Reference: 20080520/MPCPages.arcLast Updated: 2008-05-22

[ show close-approach data ]
Alternate Designations
 1982 VN = 1993 QW10 = 1995 FK21 = 1997 TE27 
Ephemeris | Orbit Diagram | Orbital Elements | Mission Design | Physical Parameters | Discovery Circumstances | Close-Approach Data ]
ABOUT SSD CREDITS/AWARDS PRIVACY/COPYRIGHT GLOSSARY LINKS
FirstGov 2020-May-31 17:59 UT
(server date/time)  
NASA Home Page
Site Manager:   Ryan S. Park
Webmaster  Alan B. Chamberlin